This is the latest recevied weather packets stored in our database for station/object DG6HD-13. If no packets are shown the sender has not sent any weather packets the latest 10 day(s).
| Time | Temp. | Humidity | Pressure | Rain* | Wind** | Luminosity | Snow |
|---|---|---|---|---|---|---|---|
| 1778263371 | 12.22° C | 35% | 1022.4 hPa | - | - | - | - |
| 1778262470 | 12.78° C | 33% | 1022.3 hPa | - | - | - | - |
| 1778261569 | 12.78° C | 34% | 1022.1 hPa | - | - | - | - |
| 1778260667 | 13.33° C | 35% | 1021.9 hPa | - | - | - | - |
| 1778259766 | 13.33° C | 38% | 1021.8 hPa | - | - | - | - |
| 1778258865 | 13.33° C | 38% | 1021.7 hPa | - | - | - | - |
| 1778257965 | 13.89° C | 38% | 1021.6 hPa | - | - | - | - |
| 1778257064 | 13.89° C | 37% | 1021.7 hPa | - | - | - | - |
| 1778256163 | 13.89° C | 37% | 1021.4 hPa | - | - | - | - |
| 1778255262 | 14.44° C | 37% | 1021.5 hPa | - | - | - | - |
| 1778254361 | 15° C | 37% | 1021.4 hPa | - | - | - | - |
| 1778253460 | 15° C | 37% | 1021.6 hPa | - | - | - | - |
| 1778252560 | 15° C | 37% | 1021.7 hPa | - | - | - | - |
| 1778251659 | 15.56° C | 37% | 1021.7 hPa | - | - | - | - |
| 1778250758 | 15.56° C | 36% | 1021.7 hPa | - | - | - | - |
| 1778248056 | 16.11° C | 36% | 1021.8 hPa | - | - | - | - |
| 1778247155 | 16.67° C | 35% | 1021.8 hPa | - | - | - | - |
| 1778246254 | 16.67° C | 35% | 1021.9 hPa | - | - | - | - |
| 1778245353 | 16.67° C | 34% | 1022.1 hPa | - | - | - | - |
| 1778244452 | 16.67° C | 33% | 1021.9 hPa | - | - | - | - |
| 1778243552 | 16.67° C | 32% | 1022 hPa | - | - | - | - |
| 1778242651 | 16.67° C | 32% | 1022.1 hPa | - | - | - | - |
| 1778241750 | 16.11° C | 31% | 1022.3 hPa | - | - | - | - |
| 1778240849 | 16.11° C | 31% | 1022.2 hPa | - | - | - | - |
| 1778239948 | 16.11° C | 31% | 1022.2 hPa | - | - | - | - |
* Rain since midnight (hover to see other rain measurements)
** Current wind speed in m/s (hover to see current wind gust speed)